[Iaude] MPEC K66: 2020 KC1 [a=1.38,e=0.12,i=19.4,H=22.0]

mpec at marsden.cfa.harvard.edu mpec at marsden.cfa.harvard.edu
Tue May 19 01:29:33 EDT 2020


M.P.E.C. 2020-K66                                  Issued 2020 May 19, 05:28 UT

     The Minor Planet Electronic Circulars contain information on unusual
         minor planets and routine data on comets.  They are published
    on behalf of Division F of the International Astronomical Union by the
          Minor Planet Center, Smithsonian Astrophysical Observatory,
                          Cambridge, MA 02138, U.S.A.

             Prepared using the Tamkin Foundation Computer Network

                              MPC at CFA.HARVARD.EDU
            URL https://www.minorplanetcenter.net/    ISSN 1523-6714

                                    2020 KC1                                    


Observations:
     K20K01C  C2020 04 21.59959516 56 46.299+36 51 04.66         22.3 GVEK066F52
     K20K01C  C2020 04 21.60414416 56 46.305+36 51 06.71         22.2 GVEK066F52
     K20K01C  C2020 04 21.60868016 56 46.311+36 51 07.94         22.3 GVEK066F52
     K20K01C  C2020 04 21.61322116 56 46.332+36 51 09.18         22.2 GVEK066F52
     K20K01C  C2020 04 22.49444116 56 54.470+36 55 38.32         20.6 GVEK066F52
     K20K01C  C2020 04 22.50627716 56 54.443+36 55 41.72         21.4 GVEK066F52
     K20K01C  C2020 04 22.51819716 56 54.392+36 55 45.51         22.0 GVEK066F52
     K20K01C  C2020 04 22.53010416 56 54.328+36 55 49.17         21.8 GVEK066F52
     K20K01C  C2020 04 25.52057816 56 55.653+37 07 25.98         22.1 GVEK066F52
     K20K01C  C2020 04 25.53310516 56 55.461+37 07 28.34         22.3 GVEK066F52
     K20K01C  C2020 04 25.55811516 56 55.011+37 07 33.21         22.0 GVEK066F52
     K20K01C  C2020 05 03.49044516 54 11.191+37 06 18.60         22.3 GVEK066F51
     K20K01C  C2020 05 03.54050816 54 08.839+37 06 08.27         22.3 GVEK066F51
     K20K01C  C2020 05 13.58410716 44 57.080+35 35 38.29         21.7 GVEK066F51
     K20K01C  C2020 05 13.59119616 44 56.488+35 35 31.23         22.2 GVEK066F51
     K20K01C  C2020 05 13.59762316 44 55.951+35 35 25.33         21.7 GVEK066F51
     K20K01C  C2020 05 14.49781716 43 49.950+35 21 13.57         22.1 GVEK066F52
     K20K01C  C2020 05 14.51206416 43 48.649+35 20 58.85         21.0 GVEK066F52
     K20K01C  C2020 05 14.51404116 43 48.466+35 20 56.91         21.3 GVEK066F52
     K20K01C  C2020 05 14.53022416 43 47.013+35 20 40.72         21.3 GVEK066F52
     K20K01C* C2020 05 17.36911 16 39 57.93 +34 27 38.5          22.0 GVEK066G96
     K20K01C  C2020 05 17.37384 16 39 57.47 +34 27 32.9          21.5 GVEK066G96
     K20K01C  C2020 05 17.37858 16 39 57.03 +34 27 27.1          21.1 GVEK066G96
     K20K01C  C2020 05 17.38331 16 39 56.58 +34 27 21.0          21.5 GVEK066G96
     K20K01C  C2020 05 17.44371 16 39 50.79 +34 26 04.1                VEK066V06
     K20K01C  C2020 05 17.44609 16 39 50.51 +34 25 59.7          21.1 GVEK066V06
     K20K01C  C2020 05 17.44846 16 39 50.31 +34 25 56.7          21.3 GVEK066V06
     K20K01C  C2020 05 17.45084 16 39 50.06 +34 25 53.4          21.3 GVEK066V06
     K20K01C  C2020 05 18.35373 16 38 32.69 +34 06 19.6          20.9 GVEK066V06
     K20K01C  C2020 05 18.35610 16 38 32.47 +34 06 16.2          21.1 GVEK066V06
     K20K01C  C2020 05 18.35848 16 38 32.23 +34 06 13.0          21.2 GVEK066V06
     K20K01C  C2020 05 18.36085 16 38 32.00 +34 06 09.8          21.3 GVEK066V06
     K20K01C  C2020 05 18.99670 16 37 35.57 +33 51 22.8          21.4 VVEK066033
     K20K01C  C2020 05 19.00028 16 37 35.21 +33 51 17.7          21.5 VVEK066033
     K20K01C  C2020 05 19.00386 16 37 34.86 +33 51 12.7          21.5 VVEK066033

Observer details:
033 Karl Schwarzschild Observatory, Tautenburg.  Observers S. Melnikov, B. 
   Stecklum.  Measurer B. Stecklum.  1.34-m f/3 Schmidt + CCD.
F51 Pan-STARRS 1, Haleakala.  Observers J. Bulger, K. Chambers, T. Lowe, A. 
   Schultz, M. Willman.  Measurers S. Chastel, M. Huber, Y. Ramanjooloo, R. 
   Wainscoat, R. Weryk.  1.8-m Ritchey-Chretien + CCD.
F52 Pan-STARRS 2, Haleakala.  Observers J. Bulger, K. Chambers, T. Dukes, T. 
   Lowe, A. Schultz, M. Willman.  Measurers S. Chastel, M. Huber, Y. 
   Ramanjooloo, R. Wainscoat, R. Weryk.  1.8-m Ritchey-Chretien + CCD.
G96 Mt. Lemmon Survey.  Observer H. Groeller.  Measurers E. J. Christensen, G. 
   A. Farneth, D. C. Fuls, A. R. Gibbs, A. D. Grauer, H. Groeller, R. A. 
   Kowalski, S. M. Larson, G. J. Leonard, T. A. Pruyne, D. Rankin, R. L. Seaman,
    F. C. Shelly, K. W. Wierzchos.  1.5-m reflector + 10K CCD.
V06 Catalina Sky Survey-Kuiper.  Observer D. C. Fuls.  Measurers E. J. 
   Christensen, G. A. Farneth, D. C. Fuls, A. R. Gibbs, A. D. Grauer, H. 
   Groeller, R. A. Kowalski, S. M. Larson, G. J. Leonard, T. A. Pruyne, D. 
   Rankin, R. L. Seaman, F. C. Shelly, K. W. Wierzchos.  1.55-m reflector + CCD.

Orbital elements:
2020 KC1                                                 Earth MOID = 0.1945 AU
Epoch 2020 May 3.0 TT = JDT 2458972.5                   Bell                    
M 332.92619              (2000.0)            P               Q                  
n   0.60967271     Peri.  163.17960     -0.17403151     +0.92768714             
a   1.3774364      Node    95.84637     -0.93739049     -0.05330218             
e   0.1243048      Incl.   19.39292     -0.30168212     -0.36953411             
P   1.62           H   22.02          G   0.15           U   6                  
Residuals in seconds of arc
200421 F52  0.3-  0.4-    200503 F51  0.3+  0.0+    200517 V06  0.6+  1.2+
200421 F52  0.2-  0.3+    200513 F51  0.1+  0.0+    200517 V06  0.0-  0.1-
200421 F52  0.1-  0.2+    200513 F51  0.1+  0.2-    200517 V06  0.3+  0.0+
200421 F52  0.2+  0.1+    200513 F51  0.1+  0.1+    200517 V06  0.0-  0.2-
200422 F52  0.1-  0.1+    200514 F52  0.2+  0.2+    200518 V06  0.0+  0.2+
200422 F52  0.1+  0.2-    200514 F52  0.2-  0.2-    200518 V06  0.2+  0.0+
200422 F52  0.0+  0.1-    200514 F52  0.3-  0.2-    200518 V06  0.2+  0.1+
200422 F52  0.2-  0.1-    200514 F52  0.5-  0.0-    200518 V06  0.3+  0.1+
200425 F52  0.2+  0.1-    200517 G96  0.1-  0.2-    200518 033  0.1-  0.1-
200425 F52  0.3+  0.1-    200517 G96  0.1-  0.2+    200519 033  0.2-  0.2-
200425 F52  0.2-  0.5+    200517 G96  0.1+  0.4+    200519 033  0.1-  0.1-
200503 F51  0.1-  0.2-    200517 G96  0.2+  0.3+
Ephemeris:
2020 KC1                 a,e,i = 1.38, 0.12, 19                  q = 1.2062
Date    TT    R. A. (2000) Decl.     Delta      r    Elong.  Phase     V
2020 04 19    16 56 09.1 +36 35 14   0.4275  1.2467   115.0    46.9    22.4
...
2020 05 04    16 53 52.1 +37 04 17   0.3680  1.2292   118.9    45.9    22.0
...
2020 05 12    16 46 49.6 +35 57 54   0.3367  1.2217   121.8    44.6    21.8
...
2020 05 18    16 39 03.9 +34 14 10   0.3141  1.2170   124.4    43.3    21.6
2020 05 19    16 37 35.3 +33 51 28   0.3105  1.2163   124.9    43.0    21.6
2020 05 20    16 36 04.0 +33 27 03   0.3069  1.2156   125.4    42.8    21.5
...
2020 05 26    16 26 07.9 +30 21 55   0.2864  1.2120   128.4    40.9    21.3
...
2020 06 03    16 11 45.2 +24 19 42   0.2633  1.2085   132.7    38.1    21.1
...
2020 06 18    15 47 21.2 +07 07 03   0.2419  1.2062   137.8    34.5    20.8

M. P. C. Staff               (C) Copyright 2020 MPC           M.P.E.C. 2020-K66




More information about the Iaude mailing list